Location: Auckland
(36.8670°S, 174.7670°E)
Time: 22:14:39
(UTC+12:00)

Tiros 1 despin weight - Pass Details

Date: 20 July 2019
Orbit: 594 x 642 km, 48.2° (Epoch: 20 August)

Event Time Altitude Azimuth Distance (km) Brightness Sun altitude
Rises 06:47:13 0° 235° (SW) 2,888 - -8.5°
Exits shadow 06:49:21 - 234° (SW) 2,050 ? -8.1°
Reaches altitude 10° 06:49:31 10° 234° (SW) 1,987 ? -8.1°
Maximum altitude 06:54:06 84° 147° (SSE) 632 ? -7.2°
Drops below altitude 10° 06:58:43 10° 56° (ENE) 2,002 ? -6.4°
Sets 07:01:03 0° 55° (NE) 2,911 ? -5.9°
